Current weather by "City, St" or "zip code"  
 
Advertise Here

Current Conditions: Perry-Foley Airport, FL

Thunderstorm in Vicinity


80.0 F

Last Updated on Jul 27 2021, 1:55 am EDT
Humidity: 97%
Wind Speed: N 0.0 mph
Barometer 29.98 in
Dewpoint: 78.8 F
Visibility: 10.00 mi
Precip: 00.01 in
Heat Index: 87 F
Wind Chill: NA
Current conditions at:

Perry-Foley Airport, FL (KFPY)

Lat: 30.07081 Lon: 83.58154

Local Radar Image active severe weather and emergency alerts image image weather storm and storm spotter reports image weather observation monitoring service image
Local
Radar
Active
Alerts
Storm Reports Obs
Monitoring

Sign-up For Email & Text Message Weather Alert Notification Services


Advertise Here

Observation History for Perry-Foley Airport, FL


Time Wind
(mph)
Vis
(mi)
Weather Precip (in) Temperature (F) Relative
Humidity
Wind
Chill
(F)
Heat
Index
(F)
Pressure
Air Dwpt altimeter
(in)
sea level
(mb)
Rmks
1:55 am EDT N 0.0 10.00 Thunderstorm in Vicinity 00.01 80.0 78.8 97% NA 87 29.98 M
1:35 am EDT NW 3.5 10.00 Thunderstorm in Vicinity 00.01 80.0 78.8 97% NA 87 29.99 M
12:55 am EDT N 6.9 10.00 Rain -- 82.0 81.0 97% NA 94 29.99 M
11:55 pm EDT N 0.0 10.00 Overcast -- 83.0 82.4 97% NA 97 29.98 M
10:55 pm EDT N 0.0 10.00 Overcast -- 83.0 81.9 97% NA 97 29.97 M
9:55 pm EDT W 3.5 10.00 Overcast -- 83.0 82.4 97% NA 97 29.96 M
8:55 pm EDT SW 4.6 10.00 Light Drizzle -- 84.0 82.2 94% NA 100 29.94 M
7:55 pm EDT N 0.0 10.00 Fair -- 90.0 76.6 65% NA 103 29.92 M
6:55 pm EDT NE 4.6 10.00 Mostly Cloudy -- 92.0 74.5 57% NA 103 29.91 M
5:55 pm EDT NW 5.8 10.00 Fair -- 93.0 72.9 52% NA 102 29.92 M
4:55 pm EDT NE 8.1 10.00 Fair -- 93.0 72.5 51% NA 101 29.92 M
4:35 pm EDT N 5.8 10.00 Partly Cloudy -- 92.0 72.5 53% NA 100 29.93 M
3:55 pm EDT N 3.5 10.00 Partly Cloudy -- 94.0 73.8 53% NA 105 29.94 M
2:55 pm EDT NE 4.6 10.00 Partly Cloudy -- 91.0 73.9 58% NA 101 29.95 M
1:55 pm EDT NW 8.1 10.00 Fair -- 91.0 71.6 54% NA 98 29.96 M
1:35 pm EDT N 8.1 10.00 Fair -- 91.0 73.9 58% NA 101 29.97 M
12:55 pm EDT N 6.9 10.00 Fair -- 90.0 75.9 64% NA 102 29.98 M
11:55 am EDT NW 5.8 10.00 Fair -- 89.0 75.7 66% NA 101 30.00 M
11:35 am EDT N 0.0 10.00 Fair -- 88.0 75.6 67% NA 99 29.99 M
10:35 am EDT N 4.6 10.00 Fair -- 85.0 78.1 81% NA 97 30.00 M
9:35 am EDT N 0.0 10.00 Fair -- 80.0 79.3 97% NA 87 30.00 M
8:35 am EDT N 0.0 10.00 Fair -- 76.0 74.7 97% NA NA 29.99 M
7:55 am EDT N 0.0 10.00 Fair -- 74.0 72.9 97% NA NA 29.97 M
6:55 am EDT N 0.0 5.00 Fog/Mist -- 73.0 72.5 97% NA NA 29.96 M

Regional Weather Observation


Thomasville Regional Airport, GA (KTVI)

Thunderstorm in Vicinity
79.0 F

Suwannee County Airport, FL (K24J)

Thunderstorm in Vicinity
77.0 F

Valdosta Regional Airport, GA (KVLD)

Mostly Cloudy
79.0 F

Tallahassee International Airport, FL (KTLH)

Mostly Cloudy
81.0 F

Moody Air Force Base, GA (KVAD)

Fair
80.0 F

Quincy Municipal Airport, FL (K2J9)

Overcast
81.0 F
Advertise Here

Advertise Here